N5XJB Weather Reports


time (UTC)temp
C
wind
direction
speed
KPH
gust
KPH
rain 1hr
cm
rain 24hr
cm
rain mn
cm
humidity
%
barometer
mb
20260506182203 29 234 3.2 3.2 0.00 0.00 0.00 74 1010.7
20260506181701 29 161 0.0 0.0 0.00 0.00 0.00 77 1011.0
20260506181158 28 138 0.0 0.0 0.00 0.00 0.00 76 1011.0
20260506180655 29 138 0.0 0.0 0.00 0.00 0.00 76 1011.0
20260506180151 29 146 3.2 3.2 0.00 0.00 0.00 78 1011.0
20260506175648 29 256 1.6 1.6 0.00 0.00 0.00 77 1011.4
20260506175145 29 288 3.2 3.2 0.00 0.00 0.00 77 1011.4
20260506174637 29 300 0.0 0.0 0.00 0.00 0.00 78 1011.7
20260506174134 29 300 0.0 0.0 0.00 0.00 0.00 78 1011.7
20260506173631 28 307 0.0 0.0 0.00 0.00 0.00 79 1011.7
20260506173128 28 72 0.0 0.0 0.00 0.00 0.00 79 1012.1
20260506172626 28 68 0.0 0.0 0.00 0.00 0.00 80 1011.7
20260506172121 28 68 0.0 0.0 0.00 0.00 0.00 81 1011.7
20260506171619 28 152 0.0 0.0 0.00 0.00 0.00 82 1012.1
20260506171116 28 163 3.2 3.2 0.00 0.00 0.00 82 1011.7
20260506170608 28 122 3.2 3.2 0.00 0.00 0.00 81 1012.1
20260506170105 28 192 0.0 0.0 0.00 0.00 0.00 79 1011.7
20260506165604 28 150 3.2 3.2 0.00 0.00 0.00 80 1011.7
20260506165100 28 151 3.2 3.2 0.00 0.00 0.00 80 1011.7
20260506164557 28 128 3.2 3.2 0.00 0.00 0.00 81 1011.7
20260506164054 27 132 1.6 1.6 0.00 0.00 0.00 82 1011.7
20260506163549 27 132 1.6 1.6 0.00 0.00 0.00 82 1011.7
20260506163046 27 126 1.6 1.6 0.00 0.00 0.00 83 1011.7
20260506162541 27 108 0.0 0.0 0.00 0.00 0.00 82 1011.7
20260506162034 28 108 3.2 3.2 0.00 0.00 0.00 81 1011.4
20260506161531 27 102 0.0 0.0 0.00 0.00 0.00 81 1011.4
20260506161028 27 174 0.0 0.0 0.00 0.00 0.00 83 1011.4
20260506160526 27 126 3.2 3.2 0.00 0.00 0.00 83 1011.4
20260506160023 27 96 0.0 0.0 0.00 0.00 0.00 84 1011.4
20260506155521 27 99 0.0 0.0 0.00 0.00 0.00 84 1011.7
20260506153658 27 76 0.0 0.0 0.00 0.00 0.00 84 1011.4
20260506153155 27 60 0.0 0.0 0.00 0.00 0.00 84 1011.4
20260506152652 27 60 0.0 0.0 0.00 0.00 0.00 84 1011.4
20260506152149 27 6 0.0 0.0 0.00 0.00 0.00 82 1011.0
20260506151648 27 6 0.0 0.0 0.00 0.00 0.00 83 1011.0
20260506151144 27 93 3.2 3.2 0.00 0.00 0.00 83 1011.0
20260506150641 27 138 0.0 0.0 0.00 0.00 0.00 83 1011.0
20260506150138 27 120 0.0 0.0 0.00 0.00 0.00 85 1011.0
20260506145635 27 116 0.0 0.0 0.00 0.00 0.00 83 1010.7
20260506145132 27 116 0.0 0.0 0.00 0.00 0.00 83 1011.0
20260506144630 27 115 0.0 0.0 0.00 0.00 0.00 85 1010.7
20260506144126 27 115 1.6 1.6 0.00 0.00 0.00 85 1010.7
20260506143624 26 106 1.6 1.6 0.00 0.00 0.00 87 1010.7
20260506143121 26 186 0.0 0.0 0.00 0.00 0.00 88 1010.7
20260506142620 26 94 0.0 0.0 0.00 0.00 0.00 88 1010.4
20260506142118 26 96 0.0 0.0 0.00 0.00 0.00 89 1010.4
20260506141615 26 162 3.2 3.2 0.00 0.00 0.00 89 1010.4
20260506141113 26 99 0.0 0.0 0.00 0.00 0.00 89 1010.7
20260506140610 26 72 1.6 1.6 0.00 0.00 0.00 90 1010.7
20260506140107 25 63 0.0 0.0 0.00 0.00 0.00 90 1010.7
20260506135604 25 135 0.0 0.0 0.00 0.00 0.00 91 1010.7
20260506135100 25 60 1.6 1.6 0.00 0.00 0.00 91 1010.7
20260506134557 25 48 0.0 0.0 0.00 0.00 0.00 91 1010.7
20260506134053 25 48 0.0 0.0 0.00 0.00 0.00 92 1010.7
20260506133550 25 18 0.0 0.0 0.00 0.00 0.00 92 1010.7
20260506133047 25 18 0.0 0.0 0.00 0.00 0.00 93 1011.0
20260506132544 25 12 0.0 0.0 0.00 0.00 0.00 93 1010.7
20260506132042 25 76 0.0 0.0 0.00 0.00 0.00 93 1010.7
20260506131538 25 122 0.0 0.0 0.00 0.00 0.00 93 1011.0
20260506131035 25 131 0.0 0.0 0.00 0.00 0.00 93 1010.7
20260506130532 25 123 3.2 3.2 0.00 0.00 0.00 93 1010.7
20260506130029 25 122 0.0 0.0 0.00 0.00 0.00 94 1011.0
20260506125528 25 162 0.0 0.0 0.00 0.00 0.00 94 1010.7
20260506125025 25 162 0.0 0.0 0.00 0.00 0.00 94 1010.4
20260506124523 25 264 0.0 0.0 0.00 0.00 0.00 94 1010.7
20260506124020 25 281 0.0 0.0 0.00 0.00 0.00 94 1010.7
20260506123518 25 281 0.0 0.0 0.00 0.00 0.00 95 1010.7
20260506123016 24 282 0.0 0.0 0.00 0.00 0.00 95 1010.7
20260506122512 24 282 0.0 0.0 0.00 0.00 0.00 95 1010.7
20260506122011 24 282 0.0 0.0 0.00 0.00 0.00 95 1010.4
20260506121508 24 282 0.0 0.0 0.00 0.00 0.00 95 1010.7
20260506121004 24 282 0.0 0.0 0.00 0.00 0.00 96 1010.7
20260506120502 24 282 0.0 0.0 0.00 0.00 0.00 96 1010.7
20260506115959 24 282 0.0 0.0 0.00 0.00 0.00 96 1010.7
20260506115457 24 282 0.0 0.0 0.00 0.00 0.00 96 1010.0
20260506114955 23 282 0.0 0.0 0.00 0.00 0.00 96 1010.4
20260506114452 23 127 0.0 0.0 0.00 0.00 0.00 96 1010.4
20260506113950 23 127 0.0 0.0 0.00 0.00 0.00 96 1010.0
20260506113448 23 127 0.0 0.0 0.00 0.00 0.00 96 1010.0
20260506112944 23 127 0.0 0.0 0.00 0.00 0.00 96 1010.0
20260506112442 23 127 0.0 0.0 0.00 0.00 0.00 96 1010.0
20260506111939 23 127 1.6 1.6 0.00 0.00 0.00 96 1009.7
20260506111437 23 127 0.0 0.0 0.00 0.00 0.00 96 1009.7
20260506110934 23 127 0.0 0.0 0.00 0.00 0.00 96 1009.7
20260506110432 23 127 0.0 0.0 0.00 0.00 0.00 96 1009.7
20260506105928 23 127 0.0 0.0 0.00 0.00 0.00 96 1009.7
20260506105424 23 129 0.0 0.0 0.00 0.00 0.00 96 1009.7
20260506104922 23 129 0.0 0.0 0.00 0.00 0.00 96 1009.3
20260506104420 23 129 0.0 0.0 0.00 0.00 0.00 95 1009.7
20260506103918 23 129 0.0 0.0 0.00 0.00 0.00 95 1009.7
20260506103415 23 128 0.0 0.0 0.00 0.00 0.00 95 1009.7
20260506102912 23 133 0.0 0.0 0.00 0.00 0.00 95 1009.3
20260506102410 23 133 0.0 0.0 0.00 0.00 0.00 95 1009.7
20260506101907 23 281 0.0 0.0 0.00 0.00 0.00 95 1009.7
20260506101403 24 281 0.0 0.0 0.00 0.00 0.00 95 1009.3
20260506100900 24 281 0.0 0.0 0.00 0.00 0.00 95 1009.3
20260506100359 24 275 0.0 0.0 0.00 0.00 0.00 94 1009.3
20260506095856 24 168 0.0 0.0 0.00 0.00 0.00 94 1009.3
20260506095354 24 168 0.0 0.0 0.00 0.00 0.00 94 1009.3
20260506094850 24 131 3.2 3.2 0.00 0.00 0.00 94 1009.3
20260506094349 24 324 0.0 0.0 0.00 0.00 0.00 94 1009.0
20260506093847 24 86 0.0 0.0 0.00 0.00 0.00 94 1009.3
20260506093344 24 79 0.0 0.0 0.00 0.00 0.00 94 1008.7
20260506092841 24 145 0.0 0.0 0.00 0.00 0.00 93 1009.0
20260506092340 24 133 3.2 3.2 0.00 0.00 0.00 93 1009.3
20260506091836 24 92 0.0 0.0 0.00 0.00 0.00 93 1009.0
20260506091334 24 54 3.2 3.2 0.00 0.00 0.00 93 1009.0
20260506090831 24 67 3.2 3.2 0.00 0.00 0.00 93 1009.3
20260506090328 25 135 0.0 0.0 0.00 0.00 0.00 93 1009.3
20260506085825 25 155 3.2 3.2 0.00 0.00 0.00 93 1009.3
20260506085321 25 96 0.0 0.0 0.00 0.00 0.00 92 1009.3
20260506084818 25 96 0.0 0.0 0.00 0.00 0.00 92 1009.3
20260506084315 25 88 0.0 0.0 0.00 0.00 0.00 92 1009.3
20260506083811 25 288 3.2 3.2 0.00 0.00 0.00 92 1009.3
20260506083309 25 286 3.2 3.2 0.00 0.00 0.00 92 1009.3
20260506082806 25 102 0.0 0.0 0.00 0.00 0.00 92 1009.3
20260506082304 25 204 0.0 0.0 0.00 0.00 0.00 92 1009.3
20260506081759 25 210 0.0 0.0 0.00 0.00 0.00 92 1009.7
20260506081257 25 180 0.0 0.0 0.00 0.00 0.00 92 1009.3
20260506080754 25 85 3.2 3.2 0.00 0.00 0.00 92 1009.7
20260506080250 25 83 0.0 0.0 0.00 0.00 0.00 92 1009.7
20260506073234 25 112 0.0 0.0 0.00 0.00 0.00 92 1010.0
20260506072731 25 112 0.0 0.0 0.00 0.00 0.00 92 1010.0
20260506072229 25 258 0.0 0.0 0.00 0.00 0.00 92 1010.0
20260506071727 25 258 0.0 0.0 0.00 0.00 0.00 92 1010.0
20260506071224 25 263 0.0 0.0 0.00 0.00 0.00 92 1010.4
20260506070721 25 258 3.2 3.2 0.00 0.00 0.00 92 1010.0
20260506070218 25 128 0.0 0.0 0.00 0.00 0.00 91 1010.4
20260506062155 25 94 0.0 0.0 0.00 0.00 0.00 91 1010.0
20260506061651 25 72 3.2 3.2 0.00 0.00 0.00 91 1010.4
20260506061148 25 180 3.2 3.2 0.00 0.00 0.00 91 1010.4
20260506060647 25 128 0.0 0.0 0.00 0.00 0.00 91 1010.4
20260506060143 25 108 0.0 0.0 0.00 0.00 0.00 91 1010.4
20260506051115 25 151 3.2 3.2 0.00 0.00 0.00 91 1010.7
20260506050614 25 133 3.2 3.2 0.00 0.00 0.00 91 1010.7
20260506050111 25 104 0.0 0.0 0.00 0.00 0.00 91 1010.4
20260506045104 25 143 3.2 3.2 0.00 0.00 0.00 91 1010.7
20260506044602 25 113 3.2 3.2 0.00 0.00 0.00 91 1010.4
20260506044058 25 90 3.2 3.2 0.00 0.00 0.00 91 1010.4
20260506043555 25 162 3.2 3.2 0.00 0.00 0.00 90 1010.4
20260506043054 25 114 0.0 0.0 0.00 0.00 0.00 90 1010.4
20260506042553 25 143 3.2 3.2 0.00 0.00 0.00 90 1010.4
20260506042050 25 127 3.2 3.2 0.00 0.00 0.00 89 1010.4
20260506041549 26 147 0.0 0.0 0.00 0.00 0.00 88 1010.0
20260506041045 26 147 0.0 0.0 0.00 0.00 0.00 88 1010.0
20260506040543 26 145 1.6 1.6 0.00 0.00 0.00 88 1010.4
20260506040038 26 134 3.2 3.2 0.00 0.00 0.00 88 1010.0
20260506035536 26 174 3.2 3.2 0.00 0.00 0.00 88 1010.0
20260506035032 26 117 3.2 3.2 0.00 0.00 0.00 87 1010.0
20260506034530 26 139 3.2 3.2 0.00 0.00 0.00 87 1010.0
20260506034026 26 204 3.2 3.2 0.00 0.00 0.00 86 1010.0
20260506033524 26 67 3.2 3.2 0.00 0.00 0.00 86 1010.0
20260506033021 26 108 1.6 1.6 0.00 0.00 0.00 86 1009.7
20260506032519 26 138 1.6 1.6 0.00 0.00 0.00 86 1009.7
20260506032015 26 254 0.0 0.0 0.00 0.00 0.00 86 1009.7
20260506031513 26 158 3.2 3.2 0.00 0.00 0.00 86 1009.7
20260506031009 26 336 3.2 3.2 0.00 0.00 0.00 86 1009.7
20260506030508 26 45 1.6 1.6 0.00 0.00 0.00 86 1009.3
20260506030005 26 300 3.2 3.2 0.00 0.00 0.00 86 1009.3
20260506025501 26 62 3.2 3.2 0.00 0.00 0.00 86 1009.3
20260506024957 26 154 3.2 3.2 0.00 0.00 0.00 86 1009.3
20260506024454 26 58 3.2 3.2 0.00 0.00 0.00 86 1009.3
20260506023950 26 102 0.0 0.0 0.00 0.00 0.00 85 1009.3
20260506023447 26 128 0.0 0.0 0.00 0.00 0.00 85 1008.7
20260506022944 26 127 3.2 3.2 0.00 0.00 0.00 85 1008.7
20260506022442 26 78 3.2 3.2 0.00 0.00 0.00 85 1009.0
20260506021939 26 268 6.4 6.4 0.00 0.00 0.00 85 1009.0
20260506021436 26 72 3.2 3.2 0.00 0.00 0.00 84 1009.0
20260506020933 26 300 3.2 3.2 0.00 0.00 0.00 84 1008.7
20260506020431 26 134 3.2 3.2 0.00 0.00 0.00 84 1008.7
20260506015928 26 113 0.0 0.0 0.00 0.00 0.00 84 1008.7
20260506015426 26 114 3.2 3.2 0.00 0.00 0.00 84 1008.7
20260506014922 26 102 3.2 3.2 0.00 0.00 0.00 83 1008.7
20260506014420 26 286 3.2 3.2 0.00 0.00 0.00 83 1008.7
20260506013916 26 326 0.0 0.0 0.00 0.00 0.00 83 1008.3
20260506013414 26 251 1.6 1.6 0.00 0.00 0.00 83 1008.3
20260506012910 26 162 0.0 0.0 0.00 0.00 0.00 83 1008.3
20260506012407 26 115 3.2 3.2 0.00 0.00 0.00 82 1008.3
20260506011904 26 96 0.0 0.0 0.00 0.00 0.00 82 1008.0
20260506011401 26 168 1.6 1.6 0.00 0.00 0.00 82 1008.0
20260506010858 26 180 3.2 3.2 0.00 0.00 0.00 82 1008.0
20260506010356 27 150 3.2 3.2 0.00 0.00 0.00 82 1008.0
20260506005853 27 336 3.2 3.2 0.00 0.00 0.00 81 1008.0
20260506005350 27 282 3.2 3.2 0.00 0.00 0.00 81 1008.0
20260506004845 27 93 3.2 3.2 0.00 0.00 0.00 81 1008.0
20260506004343 27 60 3.2 3.2 0.00 0.00 0.00 81 1008.0
20260506003839 27 156 3.2 3.2 0.00 0.00 0.00 81 1008.0
20260506003335 27 48 3.2 3.2 0.00 0.00 0.00 81 1008.0
20260506002832 27 192 4.8 4.8 0.00 0.00 0.00 81 1007.7
20260506002328 27 108 3.2 3.2 0.00 0.00 0.00 80 1007.7
20260506001824 27 180 1.6 1.6 0.00 0.00 0.00 80 1007.7
20260506001321 27 133 4.8 4.8 0.00 0.00 0.00 80 1008.0
20260506000818 27 204 3.2 3.2 0.00 0.00 0.00 80 1008.0
20260506000316 27 120 3.2 3.2 0.00 0.00 0.00 79 1008.0
20260505235812 28 288 3.2 3.2 0.00 0.00 0.00 78 1007.7
20260505235310 28 288 3.2 3.2 0.00 0.00 0.00 78 1007.7
20260505234807 28 132 3.2 3.2 0.00 0.00 0.00 78 1007.7
20260505234305 27 149 0.0 0.0 0.00 0.00 0.00 78 1007.3
20260505233801 27 306 3.2 3.2 0.00 0.00 0.00 77 1007.7
20260505233259 27 96 3.2 3.2 0.00 0.00 0.00 77 1007.7
20260505232756 27 132 3.2 3.2 0.00 0.00 0.00 77 1007.7
20260505232254 28 186 3.2 3.2 0.00 0.00 0.00 76 1007.7
20260505231750 28 137 0.0 0.0 0.00 0.00 0.00 76 1007.7
20260505231249 28 133 3.2 3.2 0.00 0.00 0.00 75 1007.7
20260505230747 28 154 3.2 3.2 0.00 0.00 0.00 76 1007.7
20260505230243 28 31 3.2 3.2 0.00 0.00 0.00 75 1007.7
20260505225740 28 95 4.8 4.8 0.00 0.00 0.00 75 1007.7
20260505225237 28 151 4.8 4.8 0.00 0.00 0.00 75 1007.7
20260505224732 28 112 3.2 3.2 0.00 0.00 0.00 75 1007.7
20260505224230 28 307 3.2 3.2 0.00 0.00 0.00 75 1007.3
20260505223727 28 108 1.6 1.6 0.00 0.00 0.00 74 1007.7
20260505223223 28 274 3.2 3.2 0.00 0.00 0.00 73 1007.7
20260505222719 28 295 0.0 0.0 0.00 0.00 0.00 73 1007.7
20260505222215 28 73 4.8 4.8 0.00 0.00 0.00 73 1007.7
20260505221713 28 186 4.8 6.4 0.00 0.00 0.00 74 1008.0
20260505221209 28 57 3.2 3.2 0.00 0.00 0.00 74 1008.0
20260505220707 28 126 6.4 8.0 0.00 0.00 0.00 73 1007.7
20260505220204 29 281 0.0 0.0 0.00 0.00 0.00 73 1007.7
20260505215702 29 93 3.2 3.2 0.00 0.00 0.00 72 1008.0
20260505215200 28 66 4.8 4.8 0.00 0.00 0.00 73 1008.0
20260505214657 28 120 4.8 4.8 0.00 0.00 0.00 74 1008.3
20260505214154 28 158 4.8 4.8 0.00 0.00 0.00 75 1008.0
20260505213652 28 318 1.6 1.6 0.00 0.00 0.00 74 1008.3
20260505213148 29 186 3.2 3.2 0.00 0.00 0.00 73 1008.3
20260505212644 29 160 3.2 3.2 0.00 0.00 0.00 73 1008.3
20260505212142 29 206 3.2 3.2 0.00 0.00 0.00 73 1008.3
20260505211639 30 112 3.2 3.2 0.00 0.00 0.00 72 1008.3
20260505211136 29 174 3.2 3.2 0.00 0.00 0.00 73 1008.3
20260505210633 29 94 3.2 3.2 0.00 0.00 0.00 73 1008.7
20260505210130 29 114 3.2 3.2 0.00 0.00 0.00 72 1008.7
20260505205627 29 129 4.8 6.4 0.00 0.00 0.00 72 1008.7
20260505205125 30 262 3.2 3.2 0.00 0.00 0.00 71 1008.7
20260505204622 30 64 3.2 3.2 0.00 0.00 0.00 69 1008.7
20260505204119 30 54 3.2 3.2 0.00 0.00 0.00 70 1008.7
20260505203616 30 114 3.2 3.2 0.00 0.00 0.00 70 1008.7
20260505203113 30 307 3.2 3.2 0.00 0.00 0.00 70 1008.7
20260505202609 29 198 0.0 0.0 0.00 0.00 0.00 73 1009.0
20260505202105 30 272 3.2 3.2 0.00 0.00 0.00 71 1009.3
20260505201602 29 99 3.2 3.2 0.00 0.00 0.00 72 1009.0
20260505201100 30 66 3.2 3.2 0.00 0.00 0.00 72 1009.3
20260505200557 29 325 3.2 3.2 0.00 0.00 0.00 72 1009.3
20260505200054 28 324 4.8 4.8 0.00 0.00 0.00 73 1009.3
20260505195550 28 101 6.4 6.4 0.00 0.00 0.00 73 1009.7
20260505195048 28 282 3.2 3.2 0.00 0.00 0.00 74 1009.7
20260505194545 28 312 3.2 3.2 0.00 0.00 0.00 74 1009.7
20260505194040 29 288 4.8 6.4 0.00 0.00 0.00 73 1009.7
20260505193537 28 127 3.2 3.2 0.00 0.00 0.00 74 1009.7
20260505193035 29 90 4.8 4.8 0.00 0.00 0.00 73 1009.7
20260505192533 28 306 3.2 3.2 0.00 0.00 0.00 74 1009.7
20260505192030 28 294 3.2 3.2 0.00 0.00 0.00 75 1009.7
20260505191528 28 127 4.8 6.4 0.00 0.00 0.00 76 1009.7
20260505191026 28 132 4.8 4.8 0.00 0.00 0.00 75 1009.7
20260505190520 28 106 0.0 0.0 0.00 0.00 0.00 76 1009.7
20260505190017 28 126 3.2 3.2 0.00 0.00 0.00 76 1010.0
20260505185514 28 293 3.2 3.2 0.00 0.00 0.00 77 1010.0
20260505185010 28 148 4.8 4.8 0.00 0.00 0.00 76 1010.0
20260505184507 28 287 1.6 1.6 0.00 0.00 0.00 75 1010.0
20260505184003 28 170 1.6 1.6 0.00 0.00 0.00 75 1010.0
20260505183501 28 301 3.2 3.2 0.00 0.00 0.00 75 1010.0
20260505182957 28 156 3.2 3.2 0.00 0.00 0.00 75 1010.0